Flag for Netherlands Weather past 2 weeks in 's-Hertogenbosch, Netherlands

Now
59 °F

Overcast.


Feels Like: 58 °F
Forecast: 45 / 61 °F
Wind: 6 mph from Northwest

Location: Volkel

Current Time: May 28, 2015 at 8:35:26 PM

Latest Report: May 28, 2015 at 7:55 PM


Visibility: N/A

Pressure: 29.92 "Hg

Humidity: 51%

Dew point: 41 °F

Location of 's-HertogenboschLocation

Historic Weather in 's-Hertogenbosch — Graph

°F

's-Hertogenbosch temperature yesterday

Maximum temperature yesterday: 68 °F (at 3:25 PM)
Minimum temperature yesterday: 43 °F (at 5:55 AM)
Average temperature yesterday: 57 °F

Past Weeks' High & Low Weather Summary

 TemperatureHumidityPressure
High70 °F (May 22, 2:55 PM)100% (May 14, 2:55 AM)30.33 "Hg (May 14, 2:55 AM)
Low39 °F (May 14, 2:55 AM)31% (May 24, 8:55 PM)29.62 "Hg (May 18, 9:25 PM)
Average54 °F70%30.06 "Hg
* Reported May 13 7:25 PM — May 28 7:25 PM, 's-Hertogenbosch, Weather by CustomWeather, © 2015

Note: Actual official high and low records may vary slightly from our data, if they occured in-between our weather recording intervals... More about our weather records

Advertising

's-Hertogenbosch weather history for previous 24 hours

 ConditionsComfort  
Time TempWeatherWind HumidityBarometerVisibility
7:25 PM
Thu, May 28
59 °FPartly sunny.7 mph51%29.92 "HgN/A
6:55 PM61 °FBroken clouds.10 mph48%29.92 "HgN/A
6:25 PM61 °FPartly sunny.15 mph45%29.92 "HgN/A
5:55 PM63 °FPartly sunny.13 mph42%29.92 "HgN/A
5:25 PM63 °FBroken clouds.13 mph45%29.92 "HgN/A
4:55 PM63 °FScattered clouds.15 mph52%29.92 "HgN/A
4:25 PM63 °FMild.14 mph52%29.92 "HgN/A
3:55 PM64 °FPassing clouds.15 mph49%29.89 "HgN/A
3:25 PM64 °FBroken clouds.13 mph49%29.89 "HgN/A
2:55 PM63 °FBroken clouds.14 mph52%29.92 "HgN/A
2:25 PM63 °FScattered clouds.14 mph59%29.92 "HgN/A
1:55 PM61 °FBroken clouds.14 mph68%29.92 "HgN/A
1:25 PM59 °FLight rain. Partly sunny.18 mph72%29.92 "HgN/A
12:55 PM61 °FScattered clouds.17 mph77%29.92 "HgN/A
12:25 PM61 °FBroken clouds.14 mph68%29.92 "HgN/A
11:55 AM61 °FPartly sunny.17 mph68%29.92 "HgN/A
11:25 AM61 °FMostly cloudy.16 mph68%29.92 "HgN/A
10:55 AM61 °FOvercast.13 mph68%29.92 "HgN/A
10:25 AM59 °FCloudy.13 mph72%29.92 "HgN/A
9:55 AM57 °FOvercast.16 mph72%29.92 "HgN/A
9:25 AM57 °FOvercast.15 mph72%29.92 "HgN/A
8:55 AM57 °FOvercast.13 mph72%29.92 "HgN/A
8:25 AM57 °FOvercast.14 mph72%29.92 "HgN/A
7:55 AM57 °FOvercast.10 mph72%29.92 "HgN/A
7:25 AM57 °FOvercast.12 mph72%29.92 "HgN/A
6:55 AM57 °FPartly sunny.13 mph67%29.92 "HgN/A
6:25 AM55 °FLight rain. Overcast.12 mph72%29.92 "HgN/A
5:55 AM57 °FOvercast.13 mph67%29.92 "HgN/A
5:25 AM57 °FPassing clouds.15 mph67%29.92 "HgN/A
4:55 AM57 °FMostly cloudy.14 mph67%29.92 "HgN/A
4:25 AM57 °FPartly cloudy.12 mph67%29.95 "HgN/A
3:55 AM57 °FOvercast.12 mph67%29.95 "HgN/A
3:25 AM57 °FOvercast.10 mph67%29.95 "HgN/A
2:55 AM55 °FOvercast.7 mph72%29.95 "HgN/A
2:25 AM55 °FMostly cloudy.7 mph72%29.98 "HgN/A
1:55 AM54 °FPassing clouds.7 mph77%29.98 "HgN/A
1:25 AM54 °FPassing clouds.6 mph72%30.01 "HgN/A
12:55 AM54 °FOvercast.6 mph72%30.01 "HgN/A
12:25 AM52 °FPassing clouds.5 mph77%30.04 "HgN/A
11:55 PM
Wed, May 27
54 °FPassing clouds.3 mph72%30.04 "HgN/A
10:55 PM55 °FPassing clouds.5 mph67%30.07 "HgN/A
10:25 PM57 °FPartly sunny.3 mph67%30.07 "HgN/A
9:55 PM57 °FPartly sunny.2 mph67%30.07 "HgN/A
9:25 PM59 °FPassing clouds.6 mph63%30.07 "HgN/A
8:55 PM61 °FCool.6 mph63%30.07 "HgN/A
8:25 PM63 °FPassing clouds.3 mph64%30.07 "HgN/A
Weather by CustomWeather, © 2015

See weather overviewHow to use our weather pages